Find Starlink 35284

NORAD ID: 65741 Int'l Des: 2025-216 Owner: SPXS Country: US Constellation: starlink operational
LEOCIRCULAR

リアルタイム位置

3D地球を読み込み中...

Starlink 35284について

説明を読み込み中...

次回通過

Passes for default location (London). Set your location on the main map for personalized predictions.

高度履歴

Loading altitude history...

軌道要素

1 65741U 25216H 26107.11029687 .00013095 00000-0 45325-3 0 9999
2 65741 53.1600 154.6010 0001215 76.6314 283.4822 15.30214479 32429
Epoch: Apr 17, 2026 • Age: 12 hours

現在のステータス

高度 478.5 km
速度 7.63 km/s
衛星直下点 41.86°N, 127.59°W
打ち上げ日 Sep 25, 2025
運用期間 0.5 years
タイプ internet

技術仕様

分類 Payload
質量 575.00 kg
乾燥質量 530.00 kg
総質量 575.00 kg
長さ 0.30 m
直径 4.10 m
スパン 29.00 m
形状 Box + pan
製造者 SPXS
バスタイプ Starlink V2MO
フェーズステータス In Orbit
所有者/国 SPXS/US

Most Searched